Terminal Aerodrome Forecast
Issued by NWS

Home | Current Version | Previous Version | Text Only | Print | Product List | Glossary On
Versions: 1 2 3 4 5 6 7 8 9 10 11 12 13 14 15 16 17 18 19 20 21 22 23 24 25 26 27 28
000
FTUS41 KPBZ 031800 AAA
TAFFKL
TAF AMD
KFKL 031845Z 0319/0418 14012KT 4SM -FZRA OVC035
     FM032000 18008KT 4SM BR OVC025
     FM040000 19012KT 2SM -RA OVC005 WS020/21045KT
     FM040900 27008KT 2SM -SN OVC007
      AMD LTD TO CLD VIS AND WIND=

USA.gov is the U.S. government's official web portal to all federal, state and local government web resources and services.